Location: *
(42.5628°N, 2.3633°E)
Time: 20:55:24
(UTC+00:00)

Resurs 01 Rocket - Pass Details

Date: 30 March 2020
Orbit: 635 x 644 km, 98.0° (Epoch: 31 May)

Event Time Altitude Azimuth Distance (km) Brightness Sun altitude
Exits shadow 20:16:27 65° 130° (SE) 698 1.5 -22.1°
Maximum altitude 20:16:58 75° 75° (ENE) 661 1.5 -22.2°
Drops below altitude 10° 20:21:23 10° 351° (N) 2,031 4.7 -22.9°
Sets 20:23:36 0° 349° (N) 2,944 5.6 -23.2°
